Lexington Weather

Lexington, Massachusetts, USA

28°F
1/23/2020 9:29am 
  • Lexington Conditions: Partly cloudy
  • Temperature: 28.4°F / -2.0°CWarmer 4.3°F than last hour.
  • Dew Point: 19.9°FIncreased 1.8°Fsince last hour.
  • Relative Humidity: 70%Decreased 8.0% since last hour.
  • Wind: Wind from WSW WSW Calm, 10-min avg: 1 mph, gust: 4 mph
  • Barometer: 30.34 in Steady
  • Visibility: 10 miles
  • Snow Today: 0.0 in
  •   

Regional Weather Roundup
for Boston / Norton, MA

        
000
ASUS41 KBOX 201900
RWRBOX

REGIONAL WEATHER ROUNDUP
NATIONAL WEATHER SERVICE BOSTON/NORTON MA
200 PM EST MON JAN 20 2020

NOTE:  "FAIR" INDICATES FEW OR NO CLOUDS BELOW 12,000 FEET WITH NO 
SIGNIFICANT WEATHER AND/OR OBSTRUCTIONS TO VISIBILITY.

MAZALL-202000-
EASTERN MASSACHUSETTS
  
CITY           SKY/WX    TMP DP  RH WIND       PRES   REMARKS
BOSTON         FAIR      30   1  29 NW10      30.18S WCI  21          
BEVERLY        FAIR      26   2  35 W15G25    30.17R WCI  14          
LAWRENCE       FAIR      24  -1  33 W12       30.20R WCI  13          
BEDFORD        FAIR      28  -3  26 NW12      30.18S WCI  18          
BLUE HILL      NOT AVBL                                               
NORWOOD        FAIR      31   1  28 NW12      30.18S WCI  22          
MARSHFIELD     NOT AVBL                                               
PLYMOUTH       FAIR      29   8  41 NW14      30.16R WCI  18          
TAUNTON        FAIR      29   6  38 NW8G17    30.17R WCI  21          
NEW BEDFORD    FAIR      29   7  39 W8        30.16S WCI  21          
$$

MAZALL-202000-
CAPE COD AND THE ISLANDS
  
CITY           SKY/WX    TMP DP  RH WIND       PRES   REMARKS
FALMOUTH       SUNNY     27   7  43 N9G17     30.15R WCI  17          
HYANNIS        NOT AVBL                                               
CHATHAM        CLOUDY    26  18  71 NW9G21    30.15R WCI  17          
PROVINCETOWN   PTSUNNY   26  17  68 N15G25    30.17R WCI  14          
NANTUCKET      PTSUNNY   28  18  66 NW23      30.14R WCI  14          
MARTHAS VNYRD  FAIR      28  10  46 NW13G20   30.16R WCI  17          
$$
 
MAZALL-202000-
CENTRAL AND WESTERN MASSACHUSETTS
  
CITY           SKY/WX    TMP DP  RH WIND       PRES   REMARKS
WORCESTER      FAIR      24  -2  32 N9G25     30.14R WCI  14          
FITCHBURG      FAIR      26  -2  29 NW14      30.18F WCI  14          
ORANGE         FAIR      25  -1  32 NW8       30.20S WCI  16          
SPRINGFIELD    SUNNY     26   0  31 NW9       30.21S WCI  17          
WESTFIELD      FAIR      25  -2  31 N21G29    30.22S WCI  11          
NORTH ADAMS    FAIR      19  -1  41 NW8       30.27F WCI   9          
PITTSFIELD     FAIR      18  -1  43 NW13G21   30.20R WCI   5          
$$
 
RIZALL-202000-
RHODE ISLAND
  
CITY           SKY/WX    TMP DP  RH WIND       PRES   REMARKS
PROVIDENCE     FAIR      29   3  33 N10       30.18F WCI  20          
NEWPORT        FAIR      28   7  41 NW15G21   30.17R WCI  16          
BLOCK ISLAND   FAIR      27   9  46 N12G22    30.19S WCI  17          
SMITHFIELD     FAIR      25   3  38 NW15      30.16S WCI  13          
WESTERLY       FAIR      31   1  28 N10G24    30.19F WCI  22          
$$
 
CTZALL-202000-
CONNECTICUT
  
CITY           SKY/WX    TMP DP  RH WIND       PRES   REMARKS
BRADLEY INTL   FAIR      27   2  34 NW13      30.23S WCI  16          
HARTFORD       FAIR      28   1  31 NW12G18   30.24S WCI  18          
BRIDGEPORT     FAIR      30   1  29 NW15G24   30.24F WCI  19          
DANBURY        FAIR      26  -1  31 NW15G22   30.25S WCI  14          
GROTON         NOT AVBL                                               
NEW HAVEN      FAIR      31   1  28 N13G22    30.23S WCI  21          
CHESTER        NOT AVBL                                               
MERIDEN        FAIR      27   1  32 N14G20    30.23F WCI  16          
WILLIMANTIC    FAIR      27   2  34 N13G21    30.22S WCI  16          
OXFORD         FAIR      24   2  38 NW13G22   30.20S WCI  12          
$$

MEZ002-015-021-024-NHZ003-005-008-011-012-014-VTZ005-008-202000-
NORTHERN NEW ENGLAND
  
CITY           SKY/WX    TMP DP  RH WIND       PRES   REMARKS
PORTLAND ME    FAIR      26  -2  29 NW12      30.14F WCI  16          
BANGOR ME      FAIR      20   2  45 NW14      30.09S WCI   7          
CONCORD NH     FAIR      22  -2  35 NW15G23   30.18S WCI   9          
MANCHESTER NH  FAIR      25  -3  29 NW14G24   30.18R WCI  13          
NASHUA NH      FAIR      25   0  33 NW15G24   30.20R WCI  13          
PORTSMOUTH NH  NOT AVBL                                               
JAFFREY NH     FAIR      22  -1  36 VRB5      30.14S WCI  16          
KEENE NH       FAIR      23   0  36 NW10G18   30.21F WCI  12          
BURLINGTON VT  FAIR      15  -1  49 CALM      30.29F                  
MT. WASHINGTON MOSUNNY   -2 -11  65 NW55G67     N/A  WCI -35          
$$

NYZ052-076-202000-
EASTERN NEW YORK
  
CITY           SKY/WX    TMP DP  RH WIND       PRES   REMARKS
ALBANY         FAIR      21   1  41 W13       30.33F WCI   9          
NEW YORK CITY  FAIR      30   4  33 NW16      30.27F WCI  19          
$$
 
ANZALL-202000-
MARINE OBSERVATIONS
  
STATION/POSITION TIME  TEMP    WIND        PRES    VSBY  WAVE
                       AIR SEA DIR/SP/G                  HT/PER
                 (UTC) (F)     (DEG/KT/KT) (MB)    (MI)  (FT/S)
BOSTON BUOY      1750   25 43  320/ 16/ 19 1020.9          4/ 6
BUZZARDS BAY     1800   25     340/ 14/ 18 1021.9F
NANTUCKET SOUND  NOT AVBL
MASS BAY-STELLWA 1804   25 42  340/ 16/ 19 1019.5S  1 7/8  4/ 6
ISLE OF SHOALS   1800   23     310/ 14/ 16 1020.8F
S OF BLOCK IS    1830      45                N/A           5/11
$$

......................KEY.........................
  SKY/WX - SKY CONDITION/PRESENT WEATHER
  TMP    - TEMPERATURE IN FAHRENHEIT
  DWPT   - DEWPOINT IN FAHRENHEIT
  RH     - RELATIVE HUMIDITY IN PERCENT
  WIND   - DIRECTION AND SPEED IN MPH
  PRES   - MEAN SEA LEVEL PRESSURE IN INCHES OF HG
  WCI    - WIND CHILL INDEX
  VSB    - VISIBILITY IN MILES
  HX     - HEAT INDEX
  TC     - TEMPERATURE IN CELSIUS
  VRB    - VARIABLE WIND DIRECTION
  N/A    - NOT AVAILABLE
  
      

Other recent Regional Weather Roundups

Thu Jan 23, 9:10am

Thu Jan 23, 9:00am

Thu Jan 23, 8:10am

Thu Jan 23, 8:00am

Thu Jan 23, 7:10am

Thu Jan 23, 7:01am

Thu Jan 23, 6:10am

Thu Jan 23, 6:00am

Thu Jan 23, 5:10am

Thu Jan 23, 5:00am

Thu Jan 23, 4:10am

Thu Jan 23, 4:01am

Thu Jan 23, 3:10am

Thu Jan 23, 3:00am

Thu Jan 23, 2:10am

Thu Jan 23, 2:00am

Thu Jan 23, 1:10am

Thu Jan 23, 1:00am

Thu Jan 23, 12:10am

Thu Jan 23, 12:00am

Wed Jan 22, 11:10pm

Wed Jan 22, 11:01pm

Wed Jan 22, 10:10pm

Wed Jan 22, 10:00pm

Wed Jan 22, 9:10pm

Wed Jan 22, 9:00pm

Wed Jan 22, 8:10pm

Wed Jan 22, 8:01pm

Wed Jan 22, 7:10pm

Wed Jan 22, 7:00pm

Wed Jan 22, 6:10pm

Wed Jan 22, 6:01pm

Wed Jan 22, 5:10pm

Wed Jan 22, 5:00pm

Wed Jan 22, 4:10pm

Wed Jan 22, 4:00pm

Wed Jan 22, 3:10pm

Wed Jan 22, 3:00pm

Wed Jan 22, 2:10pm

Wed Jan 22, 2:00pm

Wed Jan 22, 1:10pm

Wed Jan 22, 1:00pm

Wed Jan 22, 12:10pm

Wed Jan 22, 12:00pm

Wed Jan 22, 11:10am

Wed Jan 22, 11:00am

Wed Jan 22, 10:10am

Wed Jan 22, 10:01am

Wed Jan 22, 9:10am

Wed Jan 22, 9:00am

Wed Jan 22, 8:10am

Wed Jan 22, 8:00am

Wed Jan 22, 7:10am

Wed Jan 22, 7:00am

Wed Jan 22, 6:10am

Wed Jan 22, 6:00am

Wed Jan 22, 5:10am

Wed Jan 22, 5:00am

Wed Jan 22, 4:10am

Wed Jan 22, 4:00am

Wed Jan 22, 3:10am

Wed Jan 22, 3:01am

Wed Jan 22, 2:10am

Wed Jan 22, 2:00am

Wed Jan 22, 1:10am

Wed Jan 22, 1:00am

Wed Jan 22, 12:10am

Wed Jan 22, 12:00am

Tue Jan 21, 11:10pm

Tue Jan 21, 11:00pm

Tue Jan 21, 10:10pm

Tue Jan 21, 10:00pm

Tue Jan 21, 9:10pm

Tue Jan 21, 9:01pm

Tue Jan 21, 8:10pm

Tue Jan 21, 8:00pm

Tue Jan 21, 7:10pm

Tue Jan 21, 7:00pm

Tue Jan 21, 6:10pm

Tue Jan 21, 6:01pm

Tue Jan 21, 5:10pm

Tue Jan 21, 5:00pm

Tue Jan 21, 4:10pm

Tue Jan 21, 4:00pm

Tue Jan 21, 3:10pm

Tue Jan 21, 3:01pm

Tue Jan 21, 2:10pm

Tue Jan 21, 2:00pm

Tue Jan 21, 1:10pm

Tue Jan 21, 1:00pm

Tue Jan 21, 12:10pm

Tue Jan 21, 12:00pm

Tue Jan 21, 11:10am

Tue Jan 21, 11:00am

Tue Jan 21, 10:10am

Tue Jan 21, 10:00am

Tue Jan 21, 9:10am

Tue Jan 21, 9:00am

Tue Jan 21, 8:10am

Tue Jan 21, 8:00am

Tue Jan 21, 7:10am

Tue Jan 21, 7:00am

Tue Jan 21, 6:10am

Tue Jan 21, 6:00am

Tue Jan 21, 5:10am

Tue Jan 21, 5:00am

Tue Jan 21, 4:10am

Tue Jan 21, 4:00am

Tue Jan 21, 3:10am

Tue Jan 21, 3:00am

Tue Jan 21, 2:10am

Tue Jan 21, 2:01am

Tue Jan 21, 1:10am

Tue Jan 21, 1:00am

Tue Jan 21, 12:10am

Tue Jan 21, 12:00am

Mon Jan 20, 11:10pm

Mon Jan 20, 11:00pm

Mon Jan 20, 10:10pm

Mon Jan 20, 10:00pm

Mon Jan 20, 9:10pm

Mon Jan 20, 9:00pm

Mon Jan 20, 8:10pm

Mon Jan 20, 8:00pm

Mon Jan 20, 7:10pm

Mon Jan 20, 7:00pm

Mon Jan 20, 6:10pm

Mon Jan 20, 6:00pm

Mon Jan 20, 5:10pm

Mon Jan 20, 5:00pm

Mon Jan 20, 4:10pm

Mon Jan 20, 4:01pm

Mon Jan 20, 3:10pm

Mon Jan 20, 3:00pm

Mon Jan 20, 2:10pm

Mon Jan 20, 1:10pm

Mon Jan 20, 1:00pm

Mon Jan 20, 12:10pm

Mon Jan 20, 12:00pm

Mon Jan 20, 11:10am

Mon Jan 20, 11:00am

Mon Jan 20, 10:10am

Mon Jan 20, 10:00am

Meta data:

ID: 40df852e-eb58-45d3-b9dc-42fd97f8ac5a
Link: https://api.weather.gov/products/40df852e-eb58-45d3-b9dc-42fd97f8ac5a